Regional Weather Roundup
Issued by NWS

Home | Current Version | Previous Version | Graphics & Text | Print | Product List | Glossary On
Versions: 1 2 3 4 5 6 7 8 9 10 11 12 13 14 15 16 17 18 19 20 21 22 23 24 25 26 27 28 29 30 31 32 33 34 35 36 37 38 39 40 41 42 43 44 45 46 47 48 49 50
000
ASUS44 KMEG 260900
RWRTN
TENNESSEE HOURLY STATE WEATHER ROUNDUP
NATIONAL WEATHER SERVICE MEMPHIS TN
300 AM CST MON JAN 26 2015

TNZ002-004-019-021-049-052-054-088>092-261000-
WEST TENNESSEE

CITY           SKY/WX    TMP DP  RH WIND       PRES   REMARKS
MEMPHIS INTL   CLOUDY    41  32  70 N13G21    30.00R
NWS MEMPHIS      N/A     40 N/A N/A MISG        N/A
JACKSON        CLOUDY    37  31  78 N21G31    29.98R WCI  26
DYERSBURG      CLOUDY    36  21  55 N12G21    30.01S WCI  27
UNION CITY     CLOUDY    32  30  93 N17       29.97R WCI  21
PARIS          CLOUDY    32  28  86 NW9       29.94R WCI  24
LEXINGTON      CLOUDY    36  34  93 N13       29.91R WCI  27
SAVANNAH       CLOUDY    37  36  93 NW10      29.92R WCI  30
$$

TNZ008-025-027-028-033-062-065-066-261000-
NORTH MIDDLE TENNESSEE

CITY           SKY/WX    TMP DP  RH WIND       PRES   REMARKS
NASHVILLE      CLOUDY    38  34  85 NW18G26   29.83R WCI  28
CLARKSVILLE    CLOUDY    34  31  88 N21G29    29.89R WCI  22
COOKEVILLE     CLOUDY    39  39 100 NW7       29.73R WCI  34
CROSSVILLE     CLOUDY    38  34  85 NW13G21   29.70R WCI  30
$$

TNZ061-075-076-078-094-096-097-261000-
SOUTH MIDDLE TENNESSEE

CITY           SKY/WX    TMP DP  RH WIND       PRES   REMARKS
FAYETTEVILLE   CLOUDY    39  37  93 MISG      29.78S
TULLAHOMA      CLOUDY    37  37 100 NW18      29.77R WCI  27
WINCHESTER     CLOUDY    41  39  93 NW13      29.76S
SHELBYVILLE    CLOUDY    41  39  93 NW14      29.80R
$$

TNZ017-018-042-046-047-261000-
NORTHEAST TENNESSEE

CITY           SKY/WX    TMP DP  RH WIND       PRES   REMARKS
TRI CITIES     LGT RAIN  42  38  85 SW10      29.64S
ELIZABETHTON   DRIZZLE   39  36  87 CALM      29.63S
$$

TNZ012-013-036-069-073-074-261000-
CENTRAL EAST TENNESSEE

CITY           SKY/WX    TMP DP  RH WIND       PRES   REMARKS
KNOXVILLE      LGT RAIN  41  38  89 W8        29.69R
OAK RIDGE      CLOUDY    41  38  89 VRB7      29.69S
GATLINBURG     CLOUDY    41  37  87 W15       29.66S
$$

TNZ083-085-099-261000-
SOUTHEAST TENNESSEE

CITY           SKY/WX    TMP DP  RH WIND       PRES   REMARKS
CHATTANOOGA    CLOUDY    47  39  74 W8        29.73S
$$

SKY/WX REPORTED AS FAIR MEANS FEW OR NO CLOUDS BELOW
12 THOUSAND FEET.




USA.gov is the U.S. government's official web portal to all federal, state and local government web resources and services.